Regional Weather Roundup
Issued by NWS

Home | Current Version | Previous Version | Text Only | Print | Product List | Glossary On
Versions: 1 2 3 4 5 6 7 8 9 10 11 12 13 14 15 16 17 18 19 20 21 22 23 24 25 26 27 28 29 30 31 32 33 34 35 36 37 38 39 40 41 42 43 44 45 46 47 48 49 50
626
ASUS43 KOAX 291510
RWRNE

WEATHER ROUNDUP FOR NEBRASKA
NATIONAL WEATHER SERVICE OMAHA NE
1000 AM CDT SUN MAY 29 2016

NOTES: SATELLITE DATA IS BEING USED TO AUGMENT CLOUD COVER ABOVE
       12000 FEET.
       "FAIR" INDICATES FEW OR NO CLOUDS BELOW 12,000 FEET WITH NO
       SIGNIFICANT WEATHER AND/OR OBSTRUCTIONS TO VISIBILITY.

  * THESE STATIONS DO NOT REPORT WEATHER SUCH AS RAIN...SNOW OR FOG.

NEZ001>004-019>022-054>056-291600-
NEBRASKA PANHANDLE

CITY           SKY/WX    TMP DP  RH WIND       PRES   REMARKS
SCOTTSBLUFF    SUNNY     60  49  66 VRB3      30.13R
ALLIANCE       SUNNY     61  52  72 S9        30.12R
CHADRON        SUNNY     59  47  64 NE5       30.11F
KIMBALL        SUNNY     65  46  49 CALM      30.17R
SIDNEY         SUNNY     63  50  62 W8        30.15S
$$

NEZ057>060-069>072-079>082-291600-
SOUTHWEST NEBRASKA

CITY           SKY/WX    TMP DP  RH WIND       PRES   REMARKS
NORTH PLATTE   SUNNY     65  52  62 CALM      30.14S
IMPERIAL       SUNNY     64  54  69 CALM      30.14S
LEXINGTON      SUNNY     67  55  65 CALM      30.13S
MCCOOK         SUNNY     66  54  65 CALM      30.13S
OGALLALA       SUNNY     64  52  65 CALM      30.14S
$$

NEZ005>010-023>029-035>040-094-291600-
NORTH CENTRAL NEBRASKA

CITY           SKY/WX    TMP DP  RH WIND       PRES   REMARKS
VALENTINE      MOSUNNY   63  51  65 SW5       30.12R
AINSWORTH      SUNNY     65  52  62 CALM      30.13R
BROKEN BOW     MOSUNNY   66  56  70 SW5       30.12F
O`NEILL        SUNNY     71  56  59 CALM      30.12R
ORD            SUNNY     68  57  68 SW5       30.10S
THEDFORD       MOSUNNY   66  52  60 S3        30.14S
$$

NEZ041-046>049-061>064-073>077-083>087-291600-
SOUTH CENTRAL NEBRASKA

CITY           SKY/WX    TMP DP  RH WIND       PRES   REMARKS
GRAND ISLAND   SUNNY     71  55  56 SW7       30.11F
AURORA         SUNNY     73  55  53 SW7       30.11S
HASTINGS       SUNNY     70  56  61 CALM      30.12S
HEBRON         CLOUDY    72  57  60 W3        30.12S
HOLDREGE       SUNNY     69  53  57 CALM      30.13S
KEARNEY *      SUNNY     70  52  52 S3        30.14R
YORK           SUNNY     72  59  64 SW6       30.11S
$$

NEZ011>018-030>034-042>045-291600-
NORTHEAST NEBRASKA

CITY           SKY/WX    TMP DP  RH WIND       PRES   REMARKS
NORFOLK        SUNNY     69  59  70 VRB6      30.09S
ALBION         SUNNY     69  56  62 W7        30.10F
BLAIR          CLOUDY    67  60  77 SW3       30.10S
FREMONT        SUNNY     69  57  65 SW6       30.11S
TEKAMAH        CLOUDY    68  58  70 S5        30.09R
WAYNE          SUNNY     71  59  66 W10       30.09S
$$

NEZ050>053-065>068-078-088>093-291600-
SOUTHEAST NEBRASKA

CITY           SKY/WX    TMP DP  RH WIND       PRES   REMARKS
LINCOLN        SUNNY     71  60  68 SW3       30.10S
OMAHA EPPLEY   CLOUDY    70  59  68 S6        30.10R
BEATRICE       SUNNY     73  61  67 W6        30.10F
FALLS CITY     PTSUNNY   73  61  65 SW7       30.10R
NEBRASKA CITY  CLOUDY    70  60  70 S6        30.11R
PLATTSMOUTH    CLOUDY    71  60  70 CALM      30.11S
$$

NEZ044-045-051>053-067-291600-
OMAHA AREA

CITY           SKY/WX    TMP DP  RH WIND       PRES   REMARKS
OMAHA EPPLEY   CLOUDY    70  59  68 S6        30.10R
BLAIR          CLOUDY    67  60  77 SW3       30.10S
FREMONT        SUNNY     69  57  65 SW6       30.11S
MILLARD        MOSUNNY   71  58  64 CALM      30.09F
OFFUTT AFB     MOSUNNY   69  58  67 S6        30.09S
PLATTSMOUTH    CLOUDY    71  60  70 CALM      30.11S
WAHOO          FAIR      69  59  69 S3        30.10S
$$




USA.gov is the U.S. government's official web portal to all federal, state and local government web resources and services.